{"data":{"norad_id":54029,"intl_designator":"2022-129A","name":"ASO-S","alt_names":[],"object_type":"PAYLOAD","status":"ACTIVE","operator":null,"country":"PRC","launch_date":"2022-10-08","launch_site_code":"JSC","launch_vehicle":null,"mission":null,"orbit_class":"UNKNOWN","rcs_meters":null,"size_class":null,"mass_kg":null,"dimensions":null,"purposes":[],"wikipedia_slug":null,"has_3d_model":false,"image_url":null,"decayed_at":null,"tle_current":{"epoch":"2026-09-20T23:10:46.981056Z","epoch_age_seconds":116111,"freshness":"FRESH","line1":"1 54029U 22129A   26263.96582154  .00000091  00000+0  33428-4 0  9998","line2":"2 54029  98.2800 267.6988 0014808 153.9246 206.2698 14.52097115209320","mean_motion":14.52097115,"eccentricity":0.0014808,"inclination_deg":98.28,"raan_deg":267.6988,"arg_perigee_deg":153.9246,"mean_anomaly_deg":206.2698,"bstar":3.3428e-5,"rev_number":20932,"period_min":99.166921077451,"perigee_km":708.2981922293,"apogee_km":729.31650260862,"semimajor_km":7096.944347419,"source":"CELESTRAK","updated_at":"2026-09-21T09:00:09.348114Z"}}}